Simultaneous Nadir Overpasses (SNOs) Predictions

Prediction of SNOs between AQUA and GOES-15 Satellite Orbit:

Table of predicted SNOs for the next 14.0 days since TLE Epoch: 12/24/2022
Index Date Time (AQUA) AQUA Lat,Lon GOES-15 Lat,Lon Distance(km) Time Diff (sec)
1 12/24/2022 10:01:29 -0.60,-124.67 0.01,-127.51 323.43 80
2 12/24/2022 22:22:39 -0.53,-129.80 0.00,-127.45 267.15 80
3 12/26/2022 22:09:39 0.18,-126.63 -0.00,-127.52 100.89 80
4 12/27/2022 10:30:42 0.90,-131.74 -0.01,-127.62 469.12 80
5 12/28/2022 21:56:39 0.91,-123.47 -0.00,-127.59 469.09 80
6 12/29/2022 10:17:42 0.16,-128.58 -0.01,-127.69 100.81 80
7 12/31/2022 10:04:41 -0.53,-125.41 -0.01,-127.76 267.62 80
8 12/31/2022 22:25:51 -0.62,-130.53 0.01,-127.70 322.34 80
9 01/02/2023 22:12:50 0.11,-127.36 0.00,-127.76 45.77 80
10 01/04/2023 21:59:48 0.80,-124.19 -0.00,-127.82 413.40 80
11 01/05/2023 10:20:50 0.32,-129.28 -0.00,-127.91 157.31 80
